Time,TemperatureF,DewpointF,PressureIn,WindDirection,WindDirectionDegrees,WindSpeedMPH,WindSpeedGustMPH,Humidity,HourlyPrecipIn,Conditions,Clouds,dailyrainin,SoftwareType,DateUTC
2013-02-26 00:01:00,49.0,49.0,29.98,SSW,198,10.0,-999.0,100,-99.99,,,-99.99,,2013-02-26 05:01:00,
2013-02-26 00:12:00,49.0,49.0,29.98,SSW,198,10.0,-999.0,100,-99.99,,,-99.99,,2013-02-26 05:12:00,
2013-02-26 00:22:00,50.0,50.0,29.98,SW,221,9.0,-999.0,100,-99.99,,,-99.99,,2013-02-26 05:22:00,
2013-02-26 00:32:00,52.0,52.0,29.98,SSW,211,10.0,-999.0,100,-99.99,,,-99.99,,2013-02-26 05:32:00,
2013-02-26 00:43:00,52.0,52.0,29.98,SSW,211,10.0,-999.0,100,-99.99,,,-99.99,,2013-02-26 05:43:00,
2013-02-26 00:52:00,52.0,52.0,29.98,SSW,211,10.0,-999.0,100,-99.99,,,-99.99,,2013-02-26 05:52:00,
2013-02-26 01:02:00,53.0,53.0,29.96,WSW,245,8.0,-999.0,100,-99.99,,,-99.99,,2013-02-26 06:02:00,
2013-02-26 01:11:00,53.0,53.0,29.96,WSW,245,8.0,-999.0,100,-99.99,,,-99.99,,2013-02-26 06:11:00,
2013-02-26 01:22:00,54.0,54.0,29.96,SW,224,8.0,-999.0,100,-99.99,,,-99.99,,2013-02-26 06:22:00,
2013-02-26 01:32:00,54.0,54.0,29.96,South,188,9.0,-999.0,100,-99.99,,,-99.99,,2013-02-26 06:32:00,
2013-02-26 01:42:00,54.0,54.0,29.96,South,188,9.0,-999.0,100,-99.99,,,-99.99,,2013-02-26 06:42:00,
2013-02-26 01:52:00,54.0,54.0,29.96,SW,229,8.0,-999.0,100,-99.99,,,-99.99,,2013-02-26 06:52:00,
2013-02-26 02:01:00,54.0,54.0,29.96,SSW,205,8.0,-999.0,100,-99.99,,,-99.99,,2013-02-26 07:01:00,
2013-02-26 02:11:00,54.0,54.0,29.96,SSW,205,8.0,-999.0,100,-99.99,,,-99.99,,2013-02-26 07:11:00,
2013-02-26 02:22:00,54.0,54.0,29.94,West,281,7.0,-999.0,100,-99.99,,,-99.99,,2013-02-26 07:22:00,
2013-02-26 02:32:00,54.0,54.0,29.93,SSW,213,8.0,-999.0,100,-99.99,,,-99.99,,2013-02-26 07:32:00,
2013-02-26 02:42:00,54.0,54.0,29.93,SSW,213,8.0,-999.0,100,-99.99,,,-99.99,,2013-02-26 07:42:00,
2013-02-26 02:51:00,55.0,55.0,29.92,South,171,7.0,-999.0,100,-99.99,,,-99.99,,2013-02-26 07:51:00,
2013-02-26 03:02:00,54.0,54.0,29.91,SSW,196,7.0,-999.0,100,-99.99,,,-99.99,,2013-02-26 08:02:00,
2013-02-26 03:11:00,54.0,54.0,29.91,SSW,196,7.0,-999.0,100,-99.99,,,-99.99,,2013-02-26 08:11:00,
2013-02-26 03:21:00,55.0,55.0,29.91,South,190,7.0,-999.0,100,-99.99,,,-99.99,,2013-02-26 08:21:00,
2013-02-26 03:32:00,56.0,56.0,29.89,SSW,213,6.0,-999.0,100,-99.99,,,-99.99,,2013-02-26 08:32:00,
2013-02-26 03:42:00,56.0,56.0,29.89,SSW,213,6.0,-999.0,100,-99.99,,,-99.99,,2013-02-26 08:42:00,
2013-02-26 03:52:00,56.0,56.0,29.87,SW,224,7.0,-999.0,100,-99.99,,,-99.99,,2013-02-26 08:52:00,
2013-02-26 04:02:00,56.0,56.0,29.88,South,186,6.0,-999.0,100,-99.99,,,-99.99,,2013-02-26 09:02:00,
2013-02-26 04:11:00,56.0,56.0,29.88,South,186,6.0,-999.0,100,-99.99,,,-99.99,,2013-02-26 09:11:00,
2013-02-26 04:21:00,57.0,57.0,29.87,WSW,238,5.0,-999.0,100,-99.99,,,-99.99,,2013-02-26 09:21:00,
2013-02-26 04:32:00,57.0,57.0,29.86,SSE,147,7.0,-999.0,100,-99.99,,,-99.99,,2013-02-26 09:32:00,
2013-02-26 04:43:00,57.0,57.0,29.86,SSE,147,7.0,-999.0,100,-99.99,,,-99.99,,2013-02-26 09:43:00,
2013-02-26 04:51:00,56.0,56.0,29.85,SSW,209,5.0,-999.0,100,-99.99,,,-99.99,,2013-02-26 09:51:00,
2013-02-26 05:01:00,57.0,57.0,29.83,SW,232,6.0,-999.0,100,-99.99,,,-99.99,,2013-02-26 10:01:00,
2013-02-26 05:11:00,57.0,57.0,29.83,SW,232,6.0,-999.0,100,-99.99,,,-99.99,,2013-02-26 10:11:00,
2013-02-26 05:21:00,57.0,57.0,29.83,SW,225,6.0,-999.0,100,-99.99,,,-99.99,,2013-02-26 10:21:00,
2013-02-26 05:32:00,57.0,57.0,29.83,WSW,238,5.0,-999.0,100,-99.99,,,-99.99,,2013-02-26 10:32:00,
2013-02-26 05:42:00,57.0,57.0,29.83,WSW,238,5.0,-999.0,100,-99.99,,,-99.99,,2013-02-26 10:42:00,
2013-02-26 05:52:00,60.0,60.0,29.81,SSW,197,7.0,-999.0,100,-99.99,,,-99.99,,2013-02-26 10:52:00,
2013-02-26 06:01:00,60.0,60.0,29.81,WSW,241,7.0,-999.0,100,-99.99,,,-99.99,,2013-02-26 11:01:00,
2013-02-26 06:12:00,60.0,60.0,29.81,WSW,241,7.0,-999.0,100,-99.99,,,-99.99,,2013-02-26 11:12:00,
2013-02-26 06:22:00,60.0,60.0,29.81,WSW,241,7.0,-999.0,100,-99.99,,,-99.99,,2013-02-26 11:22:00,
2013-02-26 06:32:00,61.0,61.0,29.82,WSW,240,5.0,-999.0,100,-99.99,,,-99.99,,2013-02-26 11:32:00,
2013-02-26 06:42:00,61.0,61.0,29.82,WSW,240,5.0,-999.0,100,-99.99,,,-99.99,,2013-02-26 11:42:00,
2013-02-26 06:53:00,61.0,61.0,29.80,WSW,238,6.0,-999.0,100,-99.99,,,-99.99,,2013-02-26 11:53:00,
2013-02-26 07:02:00,62.0,62.0,29.79,WSW,240,8.0,-999.0,100,-99.99,,,-99.99,,2013-02-26 12:02:00,
2013-02-26 07:11:00,62.0,62.0,29.79,WSW,240,8.0,-999.0,100,-99.99,,,-99.99,,2013-02-26 12:11:00,
2013-02-26 07:22:00,62.0,62.0,29.78,West,263,8.0,-999.0,100,-99.99,,,-99.99,,2013-02-26 12:22:00,
2013-02-26 07:32:00,61.0,61.0,29.78,WNW,288,7.0,-999.0,100,-99.99,,,-99.99,,2013-02-26 12:32:00,
2013-02-26 07:42:00,61.0,61.0,29.78,WNW,288,7.0,-999.0,100,-99.99,,,-99.99,,2013-02-26 12:42:00,
2013-02-26 07:52:00,61.0,61.0,29.77,West,274,8.0,-999.0,100,-99.99,,,-99.99,,2013-02-26 12:52:00,
2013-02-26 08:02:00,61.0,61.0,29.77,West,276,9.0,-999.0,100,-99.99,,,-99.99,,2013-02-26 13:02:00,
2013-02-26 08:11:00,61.0,61.0,29.77,West,276,9.0,-999.0,100,-99.99,,,-99.99,,2013-02-26 13:11:00,
2013-02-26 08:22:00,61.0,61.0,29.76,WNW,283,11.0,-999.0,100,-99.99,,,-99.99,,2013-02-26 13:22:00,
2013-02-26 08:32:00,62.0,62.0,29.76,West,264,11.0,-999.0,100,-99.99,,,-99.99,,2013-02-26 13:32:00,
2013-02-26 08:42:00,62.0,62.0,29.76,West,264,11.0,-999.0,100,-99.99,,,-99.99,,2013-02-26 13:42:00,
2013-02-26 08:52:00,62.0,62.0,29.77,WNW,297,9.0,-999.0,100,-99.99,,,-99.99,,2013-02-26 13:52:00,
2013-02-26 09:01:00,62.0,62.0,29.77,West,267,9.0,-999.0,100,-99.99,,,-99.99,,2013-02-26 14:01:00,
2013-02-26 09:11:00,62.0,62.0,29.77,West,267,9.0,-999.0,100,-99.99,,,-99.99,,2013-02-26 14:11:00,
2013-02-26 09:22:00,66.0,66.0,29.77,WNW,295,8.0,-999.0,100,-99.99,,,-99.99,,2013-02-26 14:22:00,
2013-02-26 09:32:00,64.0,64.0,29.77,NW,315,7.0,-999.0,100,-99.99,,,-99.99,,2013-02-26 14:32:00,
2013-02-26 09:42:00,64.0,64.0,29.77,NW,315,7.0,-999.0,100,-99.99,,,-99.99,,2013-02-26 14:42:00,
2013-02-26 09:52:00,64.0,64.0,29.76,NW,311,10.0,-999.0,100,-99.99,,,-99.99,,2013-02-26 14:52:00,
2013-02-26 10:02:00,63.0,63.0,29.75,WNW,294,10.0,-999.0,100,-99.99,,,-99.99,,2013-02-26 15:02:00,
2013-02-26 10:11:00,63.0,63.0,29.75,WNW,294,10.0,-999.0,100,-99.99,,,-99.99,,2013-02-26 15:11:00,
2013-02-26 10:22:00,63.0,63.0,29.74,West,263,10.0,-999.0,100,-99.99,,,-99.99,,2013-02-26 15:22:00,
2013-02-26 10:32:00,63.0,63.0,29.74,NNW,328,8.0,-999.0,100,-99.99,,,-99.99,,2013-02-26 15:32:00,
2013-02-26 10:42:00,63.0,63.0,29.74,NNW,328,8.0,-999.0,100,-99.99,,,-99.99,,2013-02-26 15:42:00,
2013-02-26 10:52:00,63.0,63.0,29.75,NW,322,9.0,-999.0,100,-99.99,,,-99.99,,2013-02-26 15:52:00,
2013-02-26 11:02:00,62.0,62.0,29.75,NNW,337,5.0,-999.0,100,-99.99,,,-99.99,,2013-02-26 16:02:00,
2013-02-26 11:11:00,62.0,62.0,29.75,NNW,337,5.0,-999.0,100,-99.99,,,-99.99,,2013-02-26 16:11:00,
2013-02-26 11:22:00,64.0,64.0,29.75,NNW,346,4.0,-999.0,100,-99.99,,,-99.99,,2013-02-26 16:22:00,
2013-02-26 11:32:00,64.0,64.0,29.76,NNE,20,5.0,-999.0,100,-99.99,,,-99.99,,2013-02-26 16:32:00,
2013-02-26 11:42:00,64.0,64.0,29.76,NNE,20,5.0,-999.0,100,-99.99,,,-99.99,,2013-02-26 16:42:00,
2013-02-26 11:52:00,64.0,64.0,29.74,NW,325,4.0,-999.0,100,-99.99,,,-99.99,,2013-02-26 16:52:00,
2013-02-26 12:01:00,65.0,65.0,29.72,NW,326,3.0,-999.0,100,-99.99,,,-99.99,,2013-02-26 17:01:00,
2013-02-26 12:11:00,65.0,65.0,29.72,NW,326,3.0,-999.0,100,-99.99,,,-99.99,,2013-02-26 17:11:00,
2013-02-26 12:22:00,65.0,65.0,29.71,NNW,329,3.0,-999.0,100,-99.99,,,-99.99,,2013-02-26 17:22:00,
2013-02-26 12:32:00,65.0,65.0,29.70,NNW,334,2.0,-999.0,100,-99.99,,,-99.99,,2013-02-26 17:32:00,
2013-02-26 12:42:00,65.0,65.0,29.70,NNW,334,2.0,-999.0,100,-99.99,,,-99.99,,2013-02-26 17:42:00,
2013-02-26 12:52:00,66.0,66.0,29.68,North,5,1.0,-999.0,100,-99.99,,,-99.99,,2013-02-26 17:52:00,
2013-02-26 13:02:00,68.0,68.0,29.68,North,355,1.0,-999.0,100,-99.99,,,-99.99,,2013-02-26 18:02:00,
2013-02-26 13:12:00,68.0,68.0,29.68,North,355,1.0,-999.0,100,-99.99,,,-99.99,,2013-02-26 18:12:00,
2013-02-26 13:21:00,69.0,69.0,29.66,NNE,20,4.0,-999.0,100,-99.99,,,-99.99,,2013-02-26 18:21:00,
2013-02-26 13:32:00,70.0,70.0,29.65,NW,311,6.0,-999.0,100,-99.99,,,-99.99,,2013-02-26 18:32:00,
2013-02-26 13:42:00,70.0,70.0,29.65,NW,311,6.0,-999.0,100,-99.99,,,-99.99,,2013-02-26 18:42:00,
2013-02-26 13:52:00,68.0,68.0,29.64,North,355,6.0,-999.0,100,-99.99,,,-99.99,,2013-02-26 18:52:00,
2013-02-26 14:02:00,66.0,66.0,29.64,North,349,6.0,-999.0,100,-99.99,,,-99.99,,2013-02-26 19:02:00,
2013-02-26 14:11:00,66.0,66.0,29.64,North,349,6.0,-999.0,100,-99.99,,,-99.99,,2013-02-26 19:11:00,
2013-02-26 14:22:00,66.0,66.0,29.63,North,355,6.0,-999.0,100,-99.99,,,-99.99,,2013-02-26 19:22:00,
2013-02-26 14:32:00,66.0,66.0,29.62,North,355,6.0,-999.0,100,-99.99,,,-99.99,,2013-02-26 19:32:00,
2013-02-26 14:42:00,66.0,66.0,29.62,North,355,6.0,-999.0,100,-99.99,,,-99.99,,2013-02-26 19:42:00,
2013-02-26 14:52:00,66.0,66.0,29.62,North,360,5.0,-999.0,100,-99.99,,,-99.99,,2013-02-26 19:52:00,
2013-02-26 15:01:00,66.0,66.0,29.63,NNW,332,5.0,-999.0,100,-99.99,,,-99.99,,2013-02-26 20:01:00,
2013-02-26 15:11:00,66.0,66.0,29.63,NNW,332,5.0,-999.0,100,-99.99,,,-99.99,,2013-02-26 20:11:00,
2013-02-26 15:22:00,65.0,65.0,29.63,North,10,6.0,-999.0,100,-99.99,,,-99.99,,2013-02-26 20:22:00,
2013-02-26 15:32:00,66.0,66.0,29.63,NW,313,6.0,-999.0,100,-99.99,,,-99.99,,2013-02-26 20:32:00,
2013-02-26 15:41:00,66.0,66.0,29.63,NW,313,6.0,-999.0,100,-99.99,,,-99.99,,2013-02-26 20:41:00,
2013-02-26 15:52:00,66.0,66.0,29.63,NE,46,6.0,-999.0,100,-99.99,,,-99.99,,2013-02-26 20:52:00,
2013-02-26 16:01:00,66.0,66.0,29.63,ENE,78,8.0,-999.0,100,-99.99,,,-99.99,,2013-02-26 21:01:00,
2013-02-26 16:11:00,66.0,66.0,29.63,ENE,78,8.0,-999.0,100,-99.99,,,-99.99,,2013-02-26 21:11:00,
2013-02-26 16:21:00,65.0,65.0,29.64,North,355,7.0,-999.0,100,-99.99,,,-99.99,,2013-02-26 21:21:00,
2013-02-26 16:31:00,64.0,64.0,29.63,NNE,25,6.0,-999.0,100,-99.99,,,-99.99,,2013-02-26 21:31:00,
2013-02-26 16:41:00,64.0,64.0,29.63,NNE,25,6.0,-999.0,100,-99.99,,,-99.99,,2013-02-26 21:41:00,
2013-02-26 16:51:00,65.0,65.0,29.63,NW,325,6.0,-999.0,100,-99.99,,,-99.99,,2013-02-26 21:51:00,
2013-02-26 17:01:00,65.0,65.0,29.63,NNW,331,6.0,-999.0,100,-99.99,,,-99.99,,2013-02-26 22:01:00,
2013-02-26 17:11:00,65.0,65.0,29.63,NNW,331,6.0,-999.0,100,-99.99,,,-99.99,,2013-02-26 22:11:00,
2013-02-26 17:21:00,65.0,65.0,29.63,NNE,22,6.0,-999.0,100,-99.99,,,-99.99,,2013-02-26 22:21:00,
2013-02-26 17:32:00,65.0,65.0,29.64,North,355,6.0,-999.0,100,-99.99,,,-99.99,,2013-02-26 22:32:00,
2013-02-26 17:42:00,65.0,65.0,29.64,North,355,6.0,-999.0,100,-99.99,,,-99.99,,2013-02-26 22:42:00,
2013-02-26 17:51:00,64.0,64.0,29.63,NNE,21,6.0,-999.0,100,-99.99,,,-99.99,,2013-02-26 22:51:00,
2013-02-26 18:01:00,64.0,64.0,29.63,NE,34,5.0,-999.0,100,-99.99,,,-99.99,,2013-02-26 23:01:00,
2013-02-26 18:11:00,64.0,64.0,29.63,NE,34,5.0,-999.0,100,-99.99,,,-99.99,,2013-02-26 23:11:00,
2013-02-26 18:21:00,63.0,63.0,29.63,North,5,5.0,-999.0,100,-99.99,,,-99.99,,2013-02-26 23:21:00,
2013-02-26 18:32:00,63.0,63.0,29.63,NNE,28,4.0,-999.0,100,-99.99,,,-99.99,,2013-02-26 23:32:00,
2013-02-26 18:42:00,63.0,63.0,29.63,NNE,28,4.0,-999.0,100,-99.99,,,-99.99,,2013-02-26 23:42:00,
2013-02-26 18:52:00,62.0,62.0,29.64,NW,312,3.0,-999.0,100,-99.99,,,-99.99,,2013-02-26 23:52:00,
2013-02-26 19:02:00,62.0,62.0,29.64,NW,312,3.0,-999.0,100,-99.99,,,-99.99,,2013-02-27 00:02:00,
2013-02-26 19:11:00,62.0,62.0,29.64,NW,312,3.0,-999.0,100,-99.99,,,-99.99,,2013-02-27 00:11:00,
2013-02-26 19:22:00,61.0,61.0,29.65,North,355,3.0,-999.0,100,-99.99,,,-99.99,,2013-02-27 00:22:00,
2013-02-26 19:32:00,61.0,61.0,29.65,North,355,3.0,-999.0,100,-99.99,,,-99.99,,2013-02-27 00:32:00,
2013-02-26 19:42:00,61.0,61.0,29.65,North,355,3.0,-999.0,100,-99.99,,,-99.99,,2013-02-27 00:42:00,
2013-02-26 19:51:00,61.0,61.0,29.67,North,355,3.0,-999.0,100,-99.99,,,-99.99,,2013-02-27 00:51:00,
2013-02-26 20:01:00,61.0,61.0,29.67,NNE,15,3.0,-999.0,100,-99.99,,,-99.99,,2013-02-27 01:01:00,
2013-02-26 20:11:00,61.0,61.0,29.67,NNE,15,3.0,-999.0,100,-99.99,,,-99.99,,2013-02-27 01:11:00,
2013-02-26 20:22:00,61.0,61.0,29.68,NNE,32,4.0,-999.0,100,-99.99,,,-99.99,,2013-02-27 01:22:00,
2013-02-26 20:32:00,60.0,60.0,29.68,NNE,22,4.0,-999.0,100,-99.99,,,-99.99,,2013-02-27 01:32:00,
2013-02-26 20:42:00,60.0,60.0,29.68,NNE,22,4.0,-999.0,100,-99.99,,,-99.99,,2013-02-27 01:42:00,
2013-02-26 20:52:00,60.0,60.0,29.69,North,355,4.0,-999.0,100,-99.99,,,-99.99,,2013-02-27 01:52:00,
2013-02-26 21:02:00,60.0,60.0,29.69,NNW,345,4.0,-999.0,100,-99.99,,,-99.99,,2013-02-27 02:02:00,
2013-02-26 21:15:00,60.0,60.0,29.69,NNW,345,4.0,-999.0,100,-99.99,,,-99.99,,2013-02-27 02:15:00,
2013-02-26 21:24:00,59.0,59.0,29.70,NNE,17,4.0,-999.0,100,-99.99,,,-99.99,,2013-02-27 02:24:00,
2013-02-26 21:32:00,59.0,59.0,29.70,NE,37,4.0,-999.0,100,-99.99,,,-99.99,,2013-02-27 02:32:00,
2013-02-26 21:42:00,59.0,59.0,29.70,NE,37,4.0,-999.0,100,-99.99,,,-99.99,,2013-02-27 02:42:00,
2013-02-26 21:52:00,59.0,59.0,29.70,NE,44,4.0,-999.0,100,-99.99,,,-99.99,,2013-02-27 02:52:00,
2013-02-26 22:02:00,59.0,59.0,29.72,NE,40,4.0,-999.0,100,-99.99,,,-99.99,,2013-02-27 03:02:00,
2013-02-26 22:11:00,59.0,59.0,29.72,NE,40,4.0,-999.0,100,-99.99,,,-99.99,,2013-02-27 03:11:00,
2013-02-26 22:22:00,59.0,59.0,29.72,NNE,33,4.0,-999.0,100,-99.99,,,-99.99,,2013-02-27 03:22:00,
2013-02-26 22:32:00,60.0,60.0,29.72,NNE,15,5.0,-999.0,100,-99.99,,,-99.99,,2013-02-27 03:32:00,
2013-02-26 22:42:00,60.0,60.0,29.72,NNE,15,5.0,-999.0,100,-99.99,,,-99.99,,2013-02-27 03:42:00,
2013-02-26 22:52:00,61.0,61.0,29.72,NNE,26,5.0,-999.0,100,-99.99,,,-99.99,,2013-02-27 03:52:00,
2013-02-26 23:02:00,60.0,60.0,29.73,NNE,26,5.0,-999.0,100,-99.99,,,-99.99,,2013-02-27 04:02:00,
2013-02-26 23:11:00,60.0,60.0,29.73,NNE,26,5.0,-999.0,100,-99.99,,,-99.99,,2013-02-27 04:11:00,
2013-02-26 23:22:00,61.0,61.0,29.73,North,9,6.0,-999.0,100,-99.99,,,-99.99,,2013-02-27 04:22:00,
2013-02-26 23:32:00,60.0,60.0,29.73,North,355,4.0,-999.0,100,-99.99,,,-99.99,,2013-02-27 04:32:00,
2013-02-26 23:52:00,60.0,60.0,29.73,NNW,330,5.0,-999.0,100,-99.99,,,-99.99,,2013-02-27 04:52:00,